This demonstration page uses our WeatherBlox Daily Observations layout. Learn more.

Left ArrowRight Arrow

Hourly Observations for October 24, 2020

Temp ( °F °C ) Dew Point ( °F °C ) Humidity (%) Winds ( mph kmh ) Pressure ( in mb ) Visibility ( mi km ) Precip ( " mm )
12:53 am 00:53 Cloudy 30 -1.1 23 -5 75 75 SE 9 15 30.42 1030 10 16 0.00 0.00
1:53 am 01:53 Cloudy 30 -1.1 22 -5.6 72 72 ESE 6 9 30.39 1029 10 16 0.00 0.00
2:53 am 02:53 Cloudy 30 -1.1 22 -5.6 72 72 ESE 7 11 30.37 1028 10 16 0.00 0.00
3:53 am 03:53 Cloudy 30 -1.1 22 -5.6 72 72 SE 7 11 30.35 1028 10 16 0.00 0.00
4:53 am 04:53 Cloudy 29 -1.7 22 -5.6 75 75 ESE 8 13 30.32 1027 10 16 0.00 0.00
5:53 am 05:53 Cloudy 29 -1.7 21 -6.1 72 72 SE 7 11 30.31 1026 10 16 0.00 0.00
6:53 am 06:53 Cloudy 30 -1.1 21 -6.1 69 69 SE 7 11 30.29 1026 10 16 0.00 0.00
7:53 am 07:53 Cloudy 29 -1.7 21 -6.1 72 72 SE 8 13 30.28 1026 10 16 0.00 0.00
8:53 am 08:53 Cloudy 29 -1.7 21 -6.1 72 72 SE 12 19 30.28 1025 10 16 0.00 0.00
9:53 am 09:53 Cloudy 29 -1.7 22 -5.6 75 75 SE 9 15 30.27 1025 10 16 0.00 0.00
10:53 am 10:53 Cloudy 30 -1.1 22 -5.6 72 72 SE 9 15 30.26 1025 10 16 0.00 0.00
11:53 am 11:53 Cloudy 31 -0.6 23 -5 72 72 SE 12 19 30.24 1024 10 16 0.00 0.00
12:53 pm 12:53 Cloudy 32 0 23 -5 69 69 SE 12 19 30.21 1023 10 16 0.00 0.00
1:53 pm 13:53 Cloudy 33 0.6 24 -4.4 70 70 SE 9 15 30.17 1022 10 16 0.00 0.00
2:53 pm 14:53 Cloudy 34 1.1 24 -4.4 67 67 E 10 17 30.15 1021 10 16 0.00 0.00
3:53 pm 15:53 Cloudy 34 1.1 24 -4.4 67 67 E 9 15 30.14 1021 10 16 0.00 0.00
4:53 pm 16:53 Cloudy 34 1.1 24 -4.4 67 67 E 8 13 30.14 1021 10 16 0.00 0.00
5:53 pm 17:53 Cloudy 33 0.6 24 -4.4 70 70 E 12 19 30.16 1021 10 16 0.00 0.00
6:53 pm 18:53 Cloudy 32 0 24 -4.4 73 73 E 9 15 30.14 1021 10 16 0.00 0.00
7:53 pm 19:53 Cloudy 32 0 25 -3.9 75 75 E 8 13 30.17 1022 10 16 0.00 0.00
8:53 pm 20:53 Cloudy 32 0 25 -3.9 75 75 E 12 19 30.18 1022 10 16 0.00 0.00
9:53 pm 21:53 Cloudy 32 0 25 -3.9 75 75 E 8 13 30.20 1023 10 16 0.00 0.00
10:53 pm 22:53 Cloudy 31 -0.6 25 -3.9 79 79 E 12 19 30.21 1023 10 16 0.00 0.00
11:53 pm 23:53 Cloudy 31 -0.6 25 -3.9 79 79 ENE 8 13 30.24 1024 10 16 0.00 0.00

Powered by AerisWeather